カタログに戻る

CZ-2D DEB

運用中SSO
NORAD 43402·DEBRIS·🇨🇳 China

打ち上げ Sep 29, 2012 から Jiuquan Satellite Launch Center

Loading…

次のパス (今後24時間)

TLE

経年Source: Space-Track

元期: Sep 9, 2026, 11:43 UTC

1 43402U 12052B   26252.48837445  .00002191  00000-0  55583-3 0  9995
2 43402  98.0823 344.6012 0204226 150.5893 210.6975 14.39959301666903

AllMySatでCZ-2D DEBをリアルタイム追跡

Download on the App Store